Location: Cicognara
(44.9500°N, 10.4667°E)
Time: 09:28:50
(UTC+00:00)

Cosmos 1447 Rocket - Pass Details

Date: 20 June 2021
Orbit: 954 x 996 km, 82.9° (Epoch: 04 August)

Event Time Altitude Azimuth Distance (km) Brightness Sun altitude
Exits shadow 21:44:54 23° 192° (SSW) 1,941 5.6 -18.3°
Maximum altitude 21:49:00 82° 278° (W) 982 4.5 -18.5°
Drops below altitude 10° 21:55:13 10° 7° (N) 2,706 7.8 -18.9°
Sets 21:57:43 0° 8° (N) 3,652 8.6 -19.1°
